User: anonymous   Login
Location: *
(48.4333°N, 5.0333°W)
Time: 17:55:13
(UTC+00:00)
Language:

SJ-6B - Orbit

View from above orbital plane
View from above orbital plane
View from above satellite
View from above satellite

Ground track
Ground track

The orbit data is extracted from the following two-line orbital elements,

1 28415U 04035C   21206.87512059  .00000718  00000-0  50540-4 0  9994
2 28415  97.5621 248.7566 0052524  57.1262 303.5005 15.07164520924395
Epoch (UTC): 25 July 2021 21:00:10
Eccentricity: 0.0052524
inclination: 97.5621°
perigee height: 508 km
apogee height: 581 km
right ascension of ascending node: 248.7566°
argument of perigee: 57.1262°
revolutions per day: 15.07164520
mean anomaly at epoch: 303.5005°
orbit number at epoch: 92439

The dashed part of the orbit path shows where the satellite is in the earth's shadow,  

DLR